Shishmaref, AK

7:09 AM AKST on November 23, 2017 (GMT -0900)
New Shishmaref

Weather History for PASH - March, 2013

Change the Weather History Date:

Friday, March 1, 2013

  Actual Average Record
Temperature  
Mean Temperature -17 °F -  
Max Temperature -11 °F 3 °F 26 °F (2014)
Min Temperature -23 °F -4 °F -27 °F (2007)
Degree Days  
Heating Degree Days 82    
Moisture  
Dew Point -25 °F    
Average Humidity 68    
Maximum Humidity 100    
Minimum Humidity 49    
Precipitation  
Precipitation 0.00 in - - ()
Sea Level Pressure  
Sea Level Pressure 30.11 in    
Wind  
Wind Speed 4 mph (East)    
Max Wind Speed 10 mph    
Max Gust Speed -    
Visibility 10 miles    
Events      
Averages and records for this station are not official NWS values.
T = Trace of Precipitation, MM = Missing Value Source: NWS Daily Summary

Daily Weather History Graph

Daily Weather History Graph

Search for Another Location

Airport or City:

Trip Planner

Search our weather history database for the weather conditions in past years. The results will help you decide how hot, cold, wet, or windy it might be!

Date:

Astronomy

Mar. 01, 2013 Rise Set
Actual Time 9:15 AM AKST 7:18 PM AKST
Civil Twilight 8:23 AM AKST 8:11 PM AKST
Nautical Twilight 7:24 AM AKST 9:11 PM AKST
Astronomical Twilight 6:21 AM AKST 10:13 PM AKST
Moon 12:54 AM AKST (3/1) 9:05 AM AKST (3/1)
Length of Visible Light 11h 47m
Length of Day
10h 03m
Waning Gibbous, 82% of the Moon is Illuminated
Mar 1
Waning Gibbous
Mar 4
Last Quarter
Mar 11
New
Mar 19
First Quarter
Mar 27
Full

Hourly Weather History & Observations

Time (AKST) Temp. Windchill Dew Point Humidity Pressure Visibility Wind Dir Wind Speed Gust Speed Precip Events Conditions
12:16 AM -14.8 °F -27.2 °F -23.8 °F 64% 29.90 in 10.0 mi SW 4.6 mph - N/A   Overcast
12:56 AM -13.0 °F - -23.8 °F 59% 29.91 in 10.0 mi Calm Calm - N/A   Overcast
1:16 AM -11.2 °F - -14.8 °F 84% 29.92 in 10.0 mi Calm Calm - N/A   Overcast
1:36 AM -11.2 °F - -25.6 °F 49% 29.93 in 10.0 mi Calm Calm - N/A   Overcast
1:56 AM -11.2 °F - -18.4 °F 70% 29.94 in 10.0 mi Calm Calm - N/A   Overcast
2:16 AM -11.2 °F - -16.6 °F 77% 29.95 in 10.0 mi Calm Calm - N/A   Overcast
3:36 AM -13.0 °F - -23.8 °F 59% 29.98 in 10.0 mi Calm Calm - N/A   Mostly Cloudy
3:56 AM -14.8 °F - -22.0 °F 70% 29.98 in 10.0 mi Calm Calm - N/A   Mostly Cloudy
4:16 AM -16.6 °F -29.3 °F -25.6 °F 64% 29.99 in 10.0 mi East 4.6 mph - N/A   Overcast
4:36 AM -14.8 °F - -23.8 °F 64% 30.00 in 10.0 mi Calm Calm - N/A   Overcast
4:56 AM -14.8 °F -24.8 °F -22.0 °F 70% 30.01 in 10.0 mi East 3.5 mph - N/A   Overcast
5:16 AM -16.6 °F -26.8 °F -27.4 °F 58% 30.02 in 10.0 mi East 3.5 mph - N/A   Overcast
5:36 AM -16.6 °F -26.8 °F -25.6 °F 64% 30.03 in 10.0 mi ESE 3.5 mph - N/A   Overcast
5:56 AM -16.6 °F -26.8 °F -25.6 °F 64% 30.03 in 10.0 mi SE 3.5 mph - N/A   Scattered Clouds
6:16 AM -18.4 °F - -27.4 °F 63% 30.04 in 10.0 mi Calm Calm - N/A   Clear
6:36 AM -18.4 °F -28.9 °F -27.4 °F 63% 30.05 in 10.0 mi SE 3.5 mph - N/A   Clear
6:56 AM -18.4 °F - -27.4 °F 63% 30.05 in 10.0 mi Calm Calm - N/A   Clear
7:16 AM -18.4 °F - -27.4 °F 63% 30.05 in 10.0 mi Calm Calm - N/A   Clear
7:36 AM -20.2 °F - -29.2 °F 63% 30.06 in 10.0 mi Calm Calm - N/A   Clear
7:56 AM -20.2 °F -30.9 °F -29.2 °F 63% 30.06 in 10.0 mi SE 3.5 mph - N/A   Clear
8:16 AM -20.2 °F -30.9 °F -29.2 °F 63% 30.07 in 10.0 mi SE 3.5 mph - N/A   Clear
8:36 AM -20.2 °F -30.9 °F -27.4 °F 69% 30.08 in 10.0 mi SE 3.5 mph - N/A   Clear
8:56 AM -20.2 °F -30.9 °F -27.4 °F 69% 30.08 in 10.0 mi SE 3.5 mph - N/A   Clear
9:16 AM -22.0 °F -33.0 °F - N/A% 30.09 in 10.0 mi ESE 3.5 mph - N/A   Clear
9:36 AM -20.2 °F -30.9 °F -27.4 °F 69% 30.09 in 10.0 mi ESE 3.5 mph - N/A   Clear
9:56 AM -18.4 °F -31.4 °F -23.8 °F 76% 30.09 in 10.0 mi East 4.6 mph - N/A   Clear
10:16 AM -23.8 °F -37.7 °F - N/A% 30.10 in 10.0 mi East 4.6 mph - N/A   Clear
10:36 AM -23.8 °F -39.8 °F - N/A% 30.11 in 1.0 mi East 5.8 mph - N/A   Clear
10:56 AM -23.8 °F -39.8 °F - N/A% 30.12 in 9.0 mi ESE 5.8 mph - N/A   Clear
11:16 AM -22.0 °F -35.6 °F - N/A% 30.13 in 10.0 mi ESE 4.6 mph - N/A   Clear
11:36 AM -20.2 °F -33.5 °F -27.4 °F 69% 30.12 in 10.0 mi East 4.6 mph - N/A   Clear
11:56 AM -20.2 °F -33.5 °F -20.2 °F 100% 30.12 in 10.0 mi ENE 4.6 mph - N/A   Clear
12:16 PM -20.2 °F -30.9 °F - N/A% 30.13 in 5.0 mi East 3.5 mph - N/A   Clear
12:36 PM -20.2 °F -30.9 °F -25.6 °F 76% 30.14 in 10.0 mi East 3.5 mph - N/A   Clear
12:56 PM -20.2 °F -30.9 °F -27.4 °F 69% 30.14 in 7.0 mi East 3.5 mph - N/A   Clear
1:16 PM -20.2 °F -33.5 °F - N/A% 30.15 in 7.0 mi East 4.6 mph - N/A   Clear
1:36 PM -18.4 °F -28.9 °F -22.0 °F 84% 30.16 in 8.0 mi East 3.5 mph - N/A   Clear
1:56 PM -16.6 °F -29.3 °F - N/A% 30.16 in 9.0 mi East 4.6 mph - N/A   Clear
2:16 PM -16.6 °F -32.9 °F -20.2 °F 84% 30.17 in 8.0 mi East 6.9 mph - N/A   Clear
2:36 PM -16.6 °F -31.3 °F -29.2 °F 53% 30.17 in 9.0 mi East 5.8 mph - N/A   Clear
2:56 PM -16.6 °F -32.9 °F -16.6 °F 100% 30.17 in 10.0 mi ENE 6.9 mph - N/A   Clear
3:16 PM -16.6 °F -34.4 °F -25.6 °F 64% 30.17 in 10.0 mi East 8.1 mph - N/A   Clear
3:36 PM -16.6 °F -31.3 °F -27.4 °F 58% 30.18 in 10.0 mi East 5.8 mph - N/A   Clear
3:56 PM -14.8 °F -30.8 °F -16.6 °F 92% 30.18 in 10.0 mi East 6.9 mph - N/A   Clear
4:16 PM -14.8 °F -32.2 °F -27.4 °F 53% 30.18 in 10.0 mi East 8.1 mph - N/A   Clear
4:36 PM -16.6 °F -32.9 °F -29.2 °F 53% 30.18 in 10.0 mi East 6.9 mph - N/A   Clear
4:56 PM -16.6 °F -34.4 °F -20.2 °F 84% 30.18 in 10.0 mi East 8.1 mph - N/A   Clear
5:16 PM -16.6 °F -31.3 °F -29.2 °F 53% 30.19 in 10.0 mi East 5.8 mph - N/A   Clear
5:36 PM -16.6 °F -32.9 °F -20.2 °F 84% 30.19 in 10.0 mi East 6.9 mph - N/A   Clear
5:56 PM -18.4 °F -36.6 °F - N/A% 30.18 in 10.0 mi East 8.1 mph - N/A   Clear
6:16 PM -18.4 °F -36.6 °F -25.6 °F 70% 30.19 in 10.0 mi East 8.1 mph - N/A   Clear
6:36 PM -18.4 °F -36.6 °F -29.2 °F 58% 30.19 in 10.0 mi East 8.1 mph - N/A   Clear
6:56 PM -18.4 °F -36.6 °F -29.2 °F 58% 30.19 in 10.0 mi East 8.1 mph - N/A   Clear
7:16 PM -16.6 °F -34.4 °F -22.0 °F 76% 30.18 in 10.0 mi East 8.1 mph - N/A   Clear
7:36 PM -18.4 °F -37.9 °F - N/A% 30.18 in 10.0 mi ENE 9.2 mph - N/A   Clear
7:56 PM -20.2 °F -38.8 °F -27.4 °F 69% 30.18 in 10.0 mi East 8.1 mph - N/A   Clear
8:16 PM -18.4 °F -37.9 °F -29.2 °F 58% 30.18 in 10.0 mi East 9.2 mph - N/A   Clear
8:36 PM -20.2 °F -38.8 °F - N/A% 30.18 in 10.0 mi East 8.1 mph - N/A   Clear
8:56 PM -20.2 °F -38.8 °F - N/A% 30.19 in 10.0 mi East 8.1 mph - N/A   Clear
9:16 PM -20.2 °F -38.8 °F -29.2 °F 63% 30.19 in 10.0 mi East 8.1 mph - N/A   Clear
9:36 PM -20.2 °F -38.8 °F - N/A% 30.19 in 10.0 mi East 8.1 mph - N/A   Clear
9:56 PM -20.2 °F -38.8 °F - N/A% 30.19 in 10.0 mi East 8.1 mph - N/A   Clear
10:16 PM -23.8 °F -39.8 °F - N/A% 30.19 in 10.0 mi East 5.8 mph - N/A   Clear
10:36 PM -18.4 °F -36.6 °F -23.8 °F 76% 30.19 in 10.0 mi ENE 8.1 mph - N/A   Clear
10:56 PM -16.6 °F -36.8 °F - N/A% 30.19 in 10.0 mi East 10.4 mph - N/A   Clear
11:16 PM -20.2 °F -40.1 °F - N/A% 30.19 in 10.0 mi East 9.2 mph - N/A   Clear
11:36 PM -20.2 °F -38.8 °F -25.6 °F 76% 30.20 in 10.0 mi East 8.1 mph - N/A   Clear
11:56 PM -16.6 °F -35.7 °F -25.6 °F 64% 30.19 in 10.0 mi ENE 9.2 mph - N/A   Clear